Preview of NWS' New Version of Forecast
This preview is not operational and should not be used for support decisions.

Regional Weather Roundup (RWR)

Issued by National Weather Service (NWS)

                            
000
ASUS44 KMEG 202110
RWRTN 
TENNESSEE HOURLY STATE WEATHER ROUNDUP
NATIONAL WEATHER SERVICE MEMPHIS TN
300 PM CST WED FEB 20 2019

TNZ002-004-019-021-049-052-054-088>092-202200-
WEST TENNESSEE
  
CITY           SKY/WX    TMP DP  RH WIND       PRES   REMARKS
MEMPHIS INTL   CLOUDY    49  44  83 W10       29.91R                  
NWS MEMPHIS      N/A     49 N/A N/A MISG        N/A                   
JACKSON        CLOUDY    47  45  93 W8        29.90R                  
DYERSBURG      CLOUDY    47  45  93 SW10      29.89S                  
SOMERVILLE     CLOUDY    48  46  93 W8        29.89R                  
COVINGTON      CLOUDY    48  45  87 W9        29.90S                  
UNION CITY     CLOUDY    48  45  87 W6        29.86R                  
PARIS          CLOUDY    46  46 100 W8        29.86R FOG              
HUNTINGDON     CLOUDY    48  46  93 W7        29.87R FOG              
SELMER         CLOUDY    52  50  93 NW12G18   29.86R FOG              
$$

TNZ008-025-027-028-033-062-065-066-202200-
NORTH MIDDLE TENNESSEE
  
CITY           SKY/WX    TMP DP  RH WIND       PRES   REMARKS
NASHVILLE      CLOUDY    56  51  84 S18G29    29.83R                  
DICKSON        CLOUDY    55  54  94 SW9       29.83R FOG              
CLARKSVILLE    LGT RAIN  56  53  90 SW13      29.83R FOG              
LEBANON        MOCLDY    55  54  94 S21       29.82R                  
SMYRNA         CLOUDY    54  51  90 S16G22    29.86R                  
MURFREESBORO   MOCLDY    55  52  88 S16G23    29.83F                  
COOKEVILLE     CLOUDY    54  50  87 S12       29.90R FOG              
GALLATIN       CLOUDY    55  52  88 S13       29.86R                  
CROSSVILLE     CLOUDY    49  46  90 S12G24    29.93F                  
ROCKWOOD       FOG       45  45 100 S6        29.97S VSB 1            
$$

TNZ061-075-076-078-094-096-097-202200-
SOUTH MIDDLE TENNESSEE
  
CITY           SKY/WX    TMP DP  RH WIND       PRES   REMARKS
LAWRENCEBURG   CLOUDY    54  52  94 S12G18    29.85R                  
LEWISBURG      CLOUDY    54  50  87 S17G23    29.86R                  
FAYETTEVILLE   CLOUDY    50  50 100 S15       29.89F                  
TULLAHOMA      PTSUNNY   50  48  93 S8        29.88F                  
WINCHESTER     CLOUDY    52  50  93 SE5       29.90F                  
MCMINNVILLE    CLOUDY    55  52  88 SW9       29.90R                  
COLUMBIA       CLOUDY    55  55 100 S9G16     29.82S                  
SHELBYVILLE    CLOUDY    52  50  93 S10G18    29.87F                  
$$

TNZ017-018-042-046-047-202200-
NORTHEAST TENNESSEE
  
CITY           SKY/WX    TMP DP  RH WIND       PRES   REMARKS
TRI CITIES     RAIN      53  51  93 N5        30.05R FOG              
ELIZABETHTON   CLOUDY    55  46  71 CALM      30.03R                  
GREENEVILLE    CLOUDY    52  48  87 VRB3      30.00S                  
$$

TNZ012-013-036-069-073-074-202200-
CENTRAL EAST TENNESSEE
  
CITY           SKY/WX    TMP DP  RH WIND       PRES   REMARKS
KNOXVILLE      LGT RAIN  48  47  96 NE5       29.97F                  
OAK RIDGE      CLOUDY    47  47 100 CALM      29.99                   
DOWNTOWN KNOXV CLOUDY    50  50 100 CALM      30.00F FOG              
GATLINBURG     CLOUDY    50  48  93 SE6       29.98S FOG              
MORRISTOWN     CLOUDY    50  50 100 SE14      29.95F FOG              
JACKSBORO      CLOUDY    46  46 100 CALM      30.01S                  
$$

TNZ083-085-099-202200-
SOUTHEAST TENNESSEE
  
CITY           SKY/WX    TMP DP  RH WIND       PRES   REMARKS
CHATTANOOGA    TSTM      46  44  93 VRB5      29.98R                  
DAYTON         CLOUDY    48  46  93 VRB6      29.97R                  
$$

SKY/WX REPORTED AS FAIR MEANS FEW OR NO CLOUDS BELOW
12 THOUSAND FEET.